Time,TemperatureF,DewpointF,PressureIn,WindDirection,WindDirectionDegrees,WindSpeedMPH,WindSpeedGustMPH,Humidity,HourlyPrecipIn,Conditions,Clouds,dailyrainin,SoftwareType,DateUTC
2014-12-22 00:03:00,27.7,16.4,29.14,SE,135,0.0,0.0,62,0.00,,,0.00,VWS V15.00,2014-12-22 05:03:00,
2014-12-22 00:08:00,27.7,16.4,29.14,SE,135,1.3,1.3,62,0.00,,,0.00,VWS V15.00,2014-12-22 05:08:00,
2014-12-22 00:13:00,27.7,16.4,29.14,ESE,112,2.5,2.5,62,0.00,,,0.00,VWS V15.00,2014-12-22 05:13:00,
2014-12-22 00:18:00,27.7,16.7,29.14,East,90,1.6,1.6,63,0.00,,,0.00,VWS V15.00,2014-12-22 05:18:00,
2014-12-22 00:23:00,27.9,16.9,29.14,East,90,1.6,1.6,63,0.00,,,0.00,VWS V15.00,2014-12-22 05:23:00,
2014-12-22 00:28:00,27.7,16.7,29.14,ESE,112,0.0,0.0,63,0.00,,,0.00,VWS V15.00,2014-12-22 05:28:00,
2014-12-22 00:33:00,27.7,16.7,29.14,ESE,112,3.1,3.1,63,0.00,,,0.00,VWS V15.00,2014-12-22 05:33:00,
2014-12-22 00:38:00,27.9,17.3,29.14,East,90,2.0,2.0,64,0.00,,,0.00,VWS V15.00,2014-12-22 05:38:00,
2014-12-22 00:43:00,27.9,16.9,29.14,SE,135,2.5,2.5,63,0.00,,,0.00,VWS V15.00,2014-12-22 05:43:00,
2014-12-22 00:48:00,27.9,17.3,29.14,SE,135,2.9,2.9,64,0.00,,,0.00,VWS V15.00,2014-12-22 05:48:00,
2014-12-22 00:53:00,27.9,17.3,29.14,East,90,2.9,2.9,64,0.00,,,0.00,VWS V15.00,2014-12-22 05:53:00,
2014-12-22 00:58:00,27.9,17.3,29.14,ESE,112,3.1,3.1,64,0.00,,,0.00,VWS V15.00,2014-12-22 05:58:00,
2014-12-22 01:03:00,27.9,17.3,29.14,ESE,112,1.1,1.1,64,0.00,,,0.00,VWS V15.00,2014-12-22 06:03:00,
2014-12-22 01:08:00,27.9,17.3,29.14,ESE,112,2.5,2.5,64,0.00,,,0.00,VWS V15.00,2014-12-22 06:08:00,
2014-12-22 01:13:00,27.9,17.3,29.14,ESE,112,2.0,2.0,64,0.00,,,0.00,VWS V15.00,2014-12-22 06:13:00,
2014-12-22 01:18:00,27.9,17.3,29.14,ESE,112,2.0,2.0,64,0.00,,,0.00,VWS V15.00,2014-12-22 06:18:00,
2014-12-22 01:23:00,27.9,17.3,29.14,ESE,112,2.0,2.0,64,0.00,,,0.00,VWS V15.00,2014-12-22 06:23:00,
2014-12-22 01:28:00,27.9,17.3,29.14,ESE,112,2.0,2.0,64,0.00,,,0.00,VWS V15.00,2014-12-22 06:28:00,
2014-12-22 01:33:00,27.7,17.1,29.14,ESE,112,1.1,1.1,64,0.00,,,0.00,VWS V15.00,2014-12-22 06:33:00,
2014-12-22 01:38:00,27.9,17.3,29.14,ENE,68,2.5,2.5,64,0.00,,,0.00,VWS V15.00,2014-12-22 06:38:00,
2014-12-22 01:43:00,27.7,17.1,29.14,SSE,158,1.3,1.3,64,0.00,,,0.00,VWS V15.00,2014-12-22 06:43:00,
2014-12-22 01:48:00,27.7,17.1,29.14,East,90,1.6,1.6,64,0.00,,,0.00,VWS V15.00,2014-12-22 06:48:00,
2014-12-22 01:53:00,27.7,17.1,29.14,East,90,0.0,0.0,64,0.00,,,0.00,VWS V15.00,2014-12-22 06:53:00,
2014-12-22 01:58:00,27.5,16.9,29.14,ENE,68,0.0,0.0,64,0.00,,,0.00,VWS V15.00,2014-12-22 06:58:00,
2014-12-22 02:03:00,27.5,16.9,29.12,NE,45,0.0,0.0,64,0.00,,,0.00,VWS V15.00,2014-12-22 07:03:00,
2014-12-22 02:08:00,27.5,16.9,29.12,NE,45,1.1,1.1,64,0.00,,,0.00,VWS V15.00,2014-12-22 07:08:00,
2014-12-22 02:13:00,27.3,16.8,29.12,NE,45,0.0,0.0,64,0.00,,,0.00,VWS V15.00,2014-12-22 07:13:00,
2014-12-22 02:18:00,27.3,16.4,29.12,ENE,68,2.0,2.0,63,0.00,,,0.00,VWS V15.00,2014-12-22 07:18:00,
2014-12-22 02:23:00,27.3,16.4,29.12,NE,45,2.0,2.0,63,0.00,,,0.00,VWS V15.00,2014-12-22 07:23:00,
2014-12-22 02:28:00,27.3,16.8,29.12,NE,45,0.0,0.0,64,0.00,,,0.00,VWS V15.00,2014-12-22 07:28:00,
2014-12-22 02:33:00,27.3,16.8,29.14,NE,45,0.0,0.0,64,0.00,,,0.00,VWS V15.00,2014-12-22 07:33:00,
2014-12-22 02:38:00,27.3,16.8,29.14,NE,45,0.0,0.0,64,0.00,,,0.00,VWS V15.00,2014-12-22 07:38:00,
2014-12-22 02:43:00,27.3,16.8,29.14,NE,45,0.0,0.0,64,0.00,,,0.00,VWS V15.00,2014-12-22 07:43:00,
2014-12-22 02:48:00,27.0,16.1,29.12,NE,45,0.0,0.0,63,0.00,,,0.00,VWS V15.00,2014-12-22 07:48:00,
2014-12-22 02:53:00,27.0,16.4,29.12,NE,45,1.6,1.6,64,0.00,,,0.00,VWS V15.00,2014-12-22 07:53:00,
2014-12-22 02:58:00,27.0,16.4,29.12,East,90,3.8,3.8,64,0.00,,,0.00,VWS V15.00,2014-12-22 07:58:00,
2014-12-22 03:03:00,27.0,16.8,29.12,ENE,68,1.6,1.6,65,0.00,,,0.00,VWS V15.00,2014-12-22 08:03:00,
2014-12-22 03:08:00,27.7,17.5,29.12,East,90,2.0,2.0,65,0.00,,,0.00,VWS V15.00,2014-12-22 08:08:00,
2014-12-22 03:13:00,27.9,17.6,29.12,East,90,1.6,1.6,65,0.00,,,0.00,VWS V15.00,2014-12-22 08:13:00,
2014-12-22 03:18:00,28.0,17.8,29.12,East,90,1.6,1.6,65,0.00,,,0.00,VWS V15.00,2014-12-22 08:18:00,
2014-12-22 03:23:00,27.9,17.6,29.12,ENE,68,1.6,1.6,65,0.00,,,0.00,VWS V15.00,2014-12-22 08:23:00,
2014-12-22 03:28:00,27.7,17.5,29.12,East,90,1.3,1.3,65,0.00,,,0.00,VWS V15.00,2014-12-22 08:28:00,
2014-12-22 03:33:00,27.5,16.9,29.12,East,90,1.3,1.3,64,0.00,,,0.00,VWS V15.00,2014-12-22 08:33:00,
2014-12-22 03:38:00,27.3,17.1,29.12,South,180,2.2,2.2,65,0.00,,,0.00,VWS V15.00,2014-12-22 08:38:00,
2014-12-22 03:43:00,27.1,17.0,29.12,NE,45,2.9,2.9,65,0.00,,,0.00,VWS V15.00,2014-12-22 08:43:00,
2014-12-22 03:48:00,27.1,17.0,29.09,East,90,1.6,1.6,65,0.00,,,0.00,VWS V15.00,2014-12-22 08:48:00,
2014-12-22 03:53:00,27.0,17.1,29.09,East,90,2.9,2.9,66,0.00,,,0.00,VWS V15.00,2014-12-22 08:53:00,
2014-12-22 03:58:00,27.0,17.1,29.09,East,90,1.6,1.6,66,0.00,,,0.00,VWS V15.00,2014-12-22 08:58:00,
2014-12-22 04:03:00,27.0,17.1,29.09,East,90,2.5,2.5,66,0.00,,,0.00,VWS V15.00,2014-12-22 09:03:00,
2014-12-22 04:08:00,27.0,17.1,29.09,East,90,1.1,1.1,66,0.00,,,0.00,VWS V15.00,2014-12-22 09:08:00,
2014-12-22 04:13:00,27.0,17.1,29.09,ESE,112,1.1,1.1,66,0.00,,,0.00,VWS V15.00,2014-12-22 09:13:00,
2014-12-22 04:18:00,27.0,17.1,29.09,ESE,112,3.4,3.4,66,0.00,,,0.00,VWS V15.00,2014-12-22 09:18:00,
2014-12-22 04:23:00,27.1,17.3,29.09,East,90,1.3,1.3,66,0.00,,,0.00,VWS V15.00,2014-12-22 09:23:00,
2014-12-22 04:28:00,27.7,17.8,29.09,SE,135,2.2,2.2,66,0.00,,,0.00,VWS V15.00,2014-12-22 09:28:00,
2014-12-22 04:33:00,28.2,18.3,29.09,ESE,112,2.7,2.7,66,0.00,,,0.00,VWS V15.00,2014-12-22 09:33:00,
2014-12-22 04:38:00,28.6,18.7,29.09,East,90,2.0,2.0,66,0.00,,,0.00,VWS V15.00,2014-12-22 09:38:00,
2014-12-22 04:43:00,28.9,19.0,29.09,East,90,0.0,0.0,66,0.00,,,0.00,VWS V15.00,2014-12-22 09:43:00,
2014-12-22 04:48:00,29.1,19.2,29.09,East,90,0.9,0.9,66,0.00,,,0.00,VWS V15.00,2014-12-22 09:48:00,
2014-12-22 04:53:00,29.5,19.2,29.09,East,90,1.6,1.6,65,0.00,,,0.00,VWS V15.00,2014-12-22 09:53:00,
2014-12-22 04:58:00,29.5,19.2,29.09,East,90,1.1,1.1,65,0.00,,,0.00,VWS V15.00,2014-12-22 09:58:00,
2014-12-22 05:03:00,29.5,19.2,29.09,East,90,2.0,2.0,65,0.00,,,0.00,VWS V15.00,2014-12-22 10:03:00,
2014-12-22 05:08:00,29.7,19.0,29.09,ESE,112,2.9,2.9,64,0.00,,,0.00,VWS V15.00,2014-12-22 10:08:00,
2014-12-22 05:13:00,29.8,19.2,29.09,ESE,112,2.0,2.0,64,0.00,,,0.00,VWS V15.00,2014-12-22 10:13:00,
2014-12-22 05:18:00,29.8,19.2,29.09,ESE,112,1.6,1.6,64,0.00,,,0.00,VWS V15.00,2014-12-22 10:18:00,
2014-12-22 05:23:00,30.6,19.9,29.09,SE,135,2.5,2.5,64,0.00,,,0.00,VWS V15.00,2014-12-22 10:23:00,
2014-12-22 05:28:00,30.6,19.5,29.09,East,90,3.1,3.1,63,0.00,,,0.00,VWS V15.00,2014-12-22 10:28:00,
2014-12-22 05:33:00,30.7,19.6,29.09,NE,45,3.4,3.4,63,0.00,,,0.00,VWS V15.00,2014-12-22 10:33:00,
2014-12-22 05:38:00,30.9,19.8,29.09,SE,135,2.0,2.0,63,0.00,,,0.00,VWS V15.00,2014-12-22 10:38:00,
2014-12-22 05:43:00,31.1,20.0,29.09,East,90,2.7,2.7,63,0.00,,,0.00,VWS V15.00,2014-12-22 10:43:00,
2014-12-22 05:48:00,31.1,20.0,29.09,East,90,0.0,0.0,63,0.00,,,0.00,VWS V15.00,2014-12-22 10:48:00,
2014-12-22 05:53:00,31.1,19.6,29.09,ESE,112,1.6,1.6,62,0.00,,,0.00,VWS V15.00,2014-12-22 10:53:00,
2014-12-22 05:58:00,31.1,19.6,29.09,ESE,112,2.2,2.2,62,0.00,,,0.00,VWS V15.00,2014-12-22 10:58:00,
2014-12-22 06:03:00,31.6,20.1,29.09,South,180,1.1,1.1,62,0.00,,,0.00,VWS V15.00,2014-12-22 11:03:00,
2014-12-22 06:08:00,31.8,20.3,29.09,SE,135,1.1,1.1,62,0.00,,,0.00,VWS V15.00,2014-12-22 11:08:00,
2014-12-22 06:13:00,31.8,20.3,29.09,East,90,2.9,2.9,62,0.00,,,0.00,VWS V15.00,2014-12-22 11:13:00,
2014-12-22 06:19:00,32.0,20.5,29.09,East,90,1.6,1.6,62,0.00,,,0.00,VWS V15.00,2014-12-22 11:19:00,
2014-12-22 06:24:00,32.0,20.1,29.09,NE,45,2.7,2.7,61,0.00,,,0.00,VWS V15.00,2014-12-22 11:24:00,
2014-12-22 06:29:00,32.0,20.1,29.09,SE,135,0.0,0.0,61,0.00,,,0.00,VWS V15.00,2014-12-22 11:29:00,
2014-12-22 06:34:00,32.0,20.1,29.09,ESE,112,2.5,2.5,61,0.00,,,0.00,VWS V15.00,2014-12-22 11:34:00,
2014-12-22 06:39:00,32.2,20.6,29.09,SE,135,1.6,1.6,62,0.00,,,0.00,VWS V15.00,2014-12-22 11:39:00,
2014-12-22 06:44:00,32.2,20.6,29.09,ENE,68,2.0,2.0,62,0.00,,,0.00,VWS V15.00,2014-12-22 11:44:00,